Probability
100 100 100 100 100 100 100 100 97 97 100 100 100 97 97 97 90 94 94 94 100 100 100 100 100 100 97 100 94 97 100 100 90 65 68 42 10 3 3 3 0 0 0
100 100 100 100 100 100 100 100 100 100 100 100 97 94 81 77 81 74 65 68 74 84 87 100 100 100 100 100 100 100 100 97 84 77 55 13 10 55 0 0 0 0 0
74 97 97 100 100 100 100 100 100 100 100 100 97 81 74 68 48 52 48 58 58 65 77 87 100 100 100 100 100 100 100 100 100 87 52 19 16 6 0 0 0 0 0
65 81 87 97 100 100 100 100 100 100 100 100 100 94 74 61 55 23 42 39 45 48 48 58 68 97 100 100 100 97 100 100 100 100 100 90 55 26 10 19 0 3 6
45 81 87 90 94 94 97 100 97 90 90 94 94 87 77 77 55 35 19 23 29 32 23 39 48 84 100 100 100 100 100 100 100 100 100 100 100 74 45 23 13 10 3
23 35 61 74 77 81 84 84 90 87 84 84 81 81 71 68 61 35 23 29 16 13 10 19 45 68 94 100 100 100 100 100 100 100 100 100 94 90 84 68 61 45 10
13 26 32 48 58 61 77 81 81 74 68 65 61 58 52 52 42 23 13 19 13 13 10 3 26 45 65 74 84 90 87 94 97 100 97 94 90 90 87 71 68 42 16
6 6 10 19 19 35 48 52 52 48 45 39 32 19 19 10 13 10 6 3 10 10 0 3 3 10 10 13 58 68 65 71 74 68 84 87 84 84 84 77 77 61 35
0 0 0 0 3 3 10 19 13 13 10 3 3 6 3 3 6 6 3 0 0 0 0 0 0 3 6 6 10 16 29 39 39 32 48 71 74 87 90 77 68 58 58
0 0 0 0 0 0 0 0 3 0 0 0 0 0 0 0 0 0 0 0 0 0 0 0 0 0 0 0 3 3 3 13 26 45 52 74 68 81 94 90 81 68 68
0 0 0 0 0 0 0 0 0 0 0 0 0 0 0 0 0 0 0 0 0 0 0 0 0 0 0 0 0 0 0 0 6 10 10 45 74 87 87 97 94 84 81
0 0 0 0 0 0 0 0 0 0 0 0 0 0 0 0 0 0 0 0 0 0 0 0 0 0 0 0 0 0 0 0 0 0 10 13 42 81 87 97 97 90 90
0 0 0 0 0 0 0 0 0 0 0 0 0 0 0 0 0 0 0 0 0 0 0 0 0 0 0 0 0 0 0 0 0 0 3 6 13 68 90 97 100 94 71
0 0 0 0 0 0 0 0 0 0 0 0 0 0 0 0 0 0 0 0 0 0 0 0 0 0 0 0 0 0 0 0 0 0 0 0 0 6 29 48 87 81 81
0 0 0 0 0 0 0 0 0 0 0 0 0 0 0 0 0 0 0 0 0 0 0 0 0 0 0 0 0 0 0 0 0 0 0 0 0 0 0 0 19 58 77
0 0 0 0 0 0 0 0 0 0 0 0 0 0 0 0 0 0 0 0 0 0 0 0 0 0 0 0 0 0 0 0 0 0 0 0 0 0 0 0 0 0 0
0 0 0 0 0 0 0 0 0 0 0 0 0 0 0 0 0 0 0 0 0 0 0 0 0 0 0 0 0 0 0 0 0 0 0 0 0 0 0 0 0 0 0
0 0 0 0 0 0 0 0 0 0 0 0 0 0 0 0 0 0 0 0 0 0 0 0 0 0 0 0 0 0 0 0 0 0 0 0 0 0 0 0 0 0 0
0 0 0 0 0 0 0 0 0 0 0 0 0 0 0 0 0 0 0 0 0 0 0 0 0 0 0 0 0 0 0 0 0 0 0 0 0 0 0 0 0 0 0
0 0 0 0 0 0 0 0 0 0 0 0 0 0 0 0 0 0 0 0 0 0 0 0 0 0 0 0 0 0 0 0 0 0 0 0 0 0 0 0 0 0 0
0 0 0 0 0 0 0 0 0 0 0 0 0 0 0 0 0 0 0 0 0 0 0 0 0 0 0 0 0 0 0 0 0 0 0 0 0 0 0 0 0 0 0
0 0 0 0 0 0 0 0 0 0 0 0 0 0 0 0 0 0 0 0 0 0 0 0 0 0 0 0 0 0 0 0 0 0 0 0 0 0 0 0 0 0 0
0 0 0 0 0 0 0 0 0 0 0 0 0 0 0 0 0 0 0 0 0 0 0 0 0 0 0 0 0 0 0 0 0 0 0 0 0 0 0 0 0 0 0
0 0 0 0 0 0 0 0 0 0 0 0 0 0 0 0 0 0 0 0 0 0 0 0 0 0 0 0 0 0 0 0 0 0 0 0 0 0 0 0 0 0 0
0 0 0 0 0 0 0 0 0 0 0 0 0 0 0 0 0 0 0 0 0 0 0 0 0 0 0 0 0 0 0 0 0 0 0 0 0 0 0 0 0 0 0
0 0 0 0 0 0 0 0 0 0 0 0 0 0 0 0 0 0 0 0 0 0 0 0 0 0 0 0 0 0 0 0 0 0 0 0 0 0 0 0 0 0 0
Height
5891 5892 5893 5893 5894 5894 5894 5894 5894 5894 5894 5894 5893 5892 5890 5888 5885 5883 5882 5881 5881 5881 5882 5882 5882 5882 5883 5883 5883 5883 5882 5881 5880 5879 5877 5876 5875 5873 5872 5870 5868 5866 5863
5882 5884 5885 5886 5886 5886 5886 5886 5887 5887 5887 5887 5886 5885 5882 5880 5876 5875 5874 5873 5872 5872 5873 5874 5874 5874 5875 5876 5876 5876 5875 5875 5874 5873 5872 5870 5870 5869 5867 5866 5864 5862 5860
5874 5875 5877 5877 5878 5878 5878 5878 5879 5879 5879 5879 5879 5877 5874 5872 5869 5867 5865 5864 5864 5865 5865 5865 5866 5866 5867 5868 5868 5869 5869 5868 5868 5867 5866 5865 5864 5863 5862 5861 5859 5857 5855
5865 5866 5867 5868 5869 5870 5870 5870 5870 5870 5870 5870 5870 5869 5867 5865 5863 5861 5859 5857 5857 5856 5857 5857 5858 5858 5858 5859 5860 5861 5861 5861 5861 5861 5860 5859 5858 5857 5856 5855 5853 5851 5850
5855 5857 5858 5859 5860 5861 5861 5861 5861 5861 5861 5860 5860 5859 5858 5857 5854 5853 5851 5850 5849 5849 5848 5848 5849 5850 5850 5851 5852 5853 5853 5853 5854 5854 5854 5853 5852 5850 5849 5848 5846 5845 5844
5846 5847 5849 5850 5850 5851 5852 5852 5852 5852 5852 5851 5851 5850 5849 5847 5845 5844 5843 5841 5840 5840 5839 5839 5840 5842 5843 5843 5844 5845 5846 5846 5846 5846 5846 5846 5845 5844 5843 5841 5839 5838 5837
5837 5838 5839 5840 5841 5841 5842 5842 5842 5842 5842 5842 5841 5840 5839 5837 5836 5834 5833 5831 5830 5830 5830 5830 5831 5833 5834 5835 5836 5837 5838 5838 5838 5838 5838 5838 5837 5837 5836 5834 5833 5831 5830
5826 5827 5828 5829 5830 5831 5831 5832 5832 5832 5832 5832 5831 5830 5829 5827 5825 5824 5823 5821 5821 5821 5821 5821 5822 5824 5826 5827 5828 5829 5830 5830 5830 5830 5830 5830 5829 5829 5828 5827 5826 5824 5823
5814 5816 5817 5818 5820 5820 5821 5822 5822 5822 5822 5821 5820 5819 5818 5817 5816 5815 5814 5813 5813 5812 5812 5813 5814 5816 5817 5819 5820 5821 5822 5822 5822 5822 5822 5822 5821 5820 5820 5819 5818 5818 5817
5803 5805 5806 5808 5809 5810 5811 5812 5812 5812 5812 5812 5811 5809 5808 5807 5807 5806 5805 5805 5805 5805 5805 5805 5807 5808 5810 5811 5812 5813 5814 5814 5814 5814 5814 5813 5813 5812 5812 5811 5811 5810 5810
5794 5796 5797 5798 5800 5801 5802 5803 5803 5803 5803 5802 5801 5800 5799 5798 5798 5798 5798 5798 5798 5798 5798 5799 5800 5801 5802 5803 5804 5805 5805 5805 5806 5806 5806 5805 5805 5804 5804 5803 5803 5803 5803
5786 5787 5789 5790 5791 5792 5793 5794 5794 5794 5794 5793 5792 5792 5791 5790 5790 5790 5790 5791 5791 5791 5792 5792 5793 5794 5795 5796 5796 5797 5797 5797 5798 5797 5797 5797 5797 5796 5796 5795 5795 5796 5797
5778 5779 5781 5782 5783 5784 5785 5785 5786 5786 5786 5785 5785 5784 5784 5783 5783 5784 5784 5784 5785 5785 5785 5786 5786 5787 5787 5788 5788 5788 5789 5789 5789 5789 5789 5789 5789 5788 5788 5787 5787 5788 5789
5769 5771 5772 5774 5775 5776 5776 5777 5777 5778 5778 5778 5778 5777 5777 5777 5777 5777 5777 5778 5778 5778 5778 5778 5778 5779 5779 5779 5779 5779 5779 5780 5780 5780 5781 5781 5781 5780 5780 5780 5779 5780 5781
5761 5763 5764 5766 5767 5768 5768 5769 5769 5770 5770 5770 5770 5770 5770 5769 5769 5769 5769 5770 5769 5769 5769 5769 5769 5769 5769 5769 5769 5769 5770 5770 5770 5771 5771 5772 5772 5771 5771 5772 5772 5772 5773
5752 5754 5755 5757 5758 5759 5760 5761 5761 5761 5761 5761 5761 5761 5760 5760 5760 5760 5760 5760 5760 5760 5759 5759 5759 5759 5759 5759 5759 5759 5759 5759 5760 5761 5761 5762 5762 5763 5763 5764 5764 5765 5766
5744 5745 5747 5748 5749 5750 5751 5751 5752 5752 5751 5751 5751 5750 5750 5750 5749 5749 5749 5748 5748 5748 5748 5748 5747 5747 5748 5748 5748 5748 5749 5749 5749 5750 5751 5752 5753 5753 5754 5755 5756 5756 5757
5736 5737 5738 5740 5741 5741 5742 5742 5742 5742 5742 5741 5740 5740 5739 5739 5738 5737 5737 5736 5735 5735 5735 5735 5735 5735 5735 5736 5737 5737 5738 5738 5739 5740 5741 5742 5743 5744 5745 5746 5747 5748 5749
5729 5730 5731 5732 5733 5733 5733 5733 5733 5733 5732 5732 5731 5730 5729 5728 5727 5726 5725 5724 5723 5723 5723 5723 5723 5723 5723 5724 5725 5726 5727 5728 5729 5730 5731 5732 5733 5735 5736 5737 5738 5739 5740
5723 5724 5725 5725 5725 5726 5726 5726 5725 5725 5724 5723 5722 5721 5720 5718 5717 5715 5714 5713 5712 5712 5711 5711 5711 5711 5712 5713 5714 5715 5716 5717 5718 5720 5721 5722 5723 5725 5726 5728 5729 5730 5732
5717 5718 5718 5718 5719 5719 5718 5718 5718 5717 5716 5715 5714 5713 5711 5710 5708 5707 5706 5705 5704 5703 5702 5702 5702 5702 5702 5703 5703 5704 5706 5707 5708 5709 5710 5711 5713 5714 5716 5718 5719 5721 5723
5712 5712 5712 5712 5712 5712 5712 5711 5711 5710 5709 5708 5707 5705 5704 5703 5702 5700 5699 5698 5697 5696 5695 5694 5694 5694 5693 5693 5694 5694 5695 5696 5697 5698 5699 5700 5702 5703 5705 5707 5709 5711 5713
5706 5706 5706 5706 5706 5706 5705 5705 5704 5704 5703 5701 5700 5699 5698 5697 5695 5694 5693 5691 5690 5689 5688 5688 5687 5686 5686 5686 5685 5686 5686 5686 5687 5687 5688 5689 5690 5692 5693 5695 5697 5700 5702
5701 5701 5701 5701 5701 5700 5700 5699 5698 5697 5696 5695 5693 5692 5691 5689 5688 5687 5685 5684 5683 5682 5681 5680 5680 5679 5678 5678 5678 5677 5678 5678 5678 5678 5679 5679 5680 5681 5682 5684 5686 5688 5690
5698 5697 5697 5697 5696 5696 5695 5694 5693 5692 5690 5689 5687 5685 5684 5682 5680 5679 5677 5676 5675 5674 5673 5672 5671 5671 5670 5670 5670 5669 5669 5669 5670 5670 5670 5671 5671 5672 5673 5674 5675 5677 5678
5695 5694 5694 5693 5693 5692 5690 5689 5688 5686 5685 5683 5681 5679 5676 5674 5672 5670 5669 5667 5666 5665 5664 5663 5662 5661 5661 5661 5660 5660 5661 5661 5661 5661 5662 5663 5663 5664 5665 5666 5666 5667 5669
Wind_Speed
35 34 34 33 33 34 34 34 34 36 36 37 38 39 41 43 44 44 44 43 41 39 36 34 33 31 31 31 30 28 26 25 25 25 25 24 23 22 22 22 23 24 24
39 38 37 37 37 37 37 36 36 37 38 39 40 42 42 43 45 45 45 45 45 43 40 37 35 33 32 32 32 30 29 27 26 26 25 25 24 23 23 23 24 24 25
41 41 41 40 39 38 37 38 38 38 39 41 42 43 43 45 45 46 46 44 44 43 42 40 37 36 35 34 34 32 30 29 27 26 26 26 26 26 25 25 25 25 25
42 41 41 40 39 38 38 39 39 40 42 43 44 45 46 47 49 48 48 45 43 42 42 42 41 39 38 37 36 35 33 30 28 27 26 26 27 27 27 27 26 26 26
40 40 40 40 40 40 40 41 42 43 45 46 46 47 49 51 52 51 49 47 45 43 42 41 41 41 40 40 39 37 34 31 29 28 27 27 28 28 29 29 29 28 27
38 39 39 40 41 42 43 44 45 46 47 49 49 50 50 51 52 52 50 47 45 43 41 41 41 42 42 41 40 37 35 31 30 30 29 29 29 30 30 30 31 31 29
40 41 41 42 43 44 45 46 47 48 49 49 50 50 50 50 51 51 49 47 44 42 40 40 42 43 43 43 42 40 36 33 31 31 31 31 31 31 31 31 31 31 30
44 44 44 44 44 45 45 46 47 47 46 46 46 47 47 48 47 46 45 44 41 38 38 37 39 39 39 39 38 37 35 33 32 32 32 32 32 32 32 32 31 31 30
44 44 44 44 44 44 44 44 44 43 42 42 41 42 43 43 42 41 39 38 37 34 33 33 33 33 33 33 33 33 33 33 33 32 32 32 31 31 31 31 31 31 30
38 38 38 38 39 39 39 39 39 38 38 39 39 40 39 38 37 35 33 32 31 30 28 28 28 29 28 28 30 31 32 31 31 31 30 30 30 31 31 31 31 30 30
33 32 32 32 33 33 34 35 36 36 37 38 38 37 36 34 32 30 29 27 26 26 26 25 25 25 26 27 28 29 30 30 30 30 29 29 29 30 30 30 30 30 30
31 31 32 32 32 33 33 33 33 34 34 33 33 32 32 31 29 27 25 25 25 25 25 25 25 26 27 28 29 30 30 30 31 30 30 29 29 30 30 30 30 30 30
30 30 31 32 32 32 32 32 31 30 30 30 29 29 28 28 28 27 26 26 27 27 27 28 28 29 30 31 32 32 33 32 32 32 31 30 30 30 30 30 30 30 30
31 30 30 30 30 30 30 30 30 29 29 29 29 29 28 29 30 30 29 30 30 31 32 32 33 34 35 35 35 36 36 35 35 34 33 32 32 31 30 30 31 31 31
32 31 31 30 30 29 30 30 31 31 31 31 31 31 32 32 33 34 34 35 36 36 36 37 38 38 39 39 38 38 38 38 37 36 35 34 33 32 31 31 31 32 32
31 31 30 30 30 30 31 31 32 33 34 35 35 36 36 36 37 38 39 40 41 41 42 42 42 42 42 42 41 40 39 39 38 37 36 35 34 32 32 32 32 32 32
30 30 29 29 30 30 31 32 33 34 35 37 38 39 40 41 42 43 44 45 45 46 46 47 47 46 46 45 43 42 40 39 38 37 36 35 35 33 33 33 33 32 32
26 27 27 27 28 28 30 31 31 33 34 35 37 39 40 42 43 44 46 47 48 48 48 48 48 48 47 46 44 41 40 38 37 36 36 35 34 33 33 33 33 33 33
22 23 24 24 25 26 27 28 29 30 31 32 33 35 37 38 40 42 43 44 46 46 47 46 46 45 44 43 41 39 38 38 37 36 35 34 34 33 32 32 33 33 33
20 21 22 23 24 25 25 26 27 27 28 29 30 31 32 34 35 36 37 38 39 39 38 38 38 38 38 38 37 37 37 36 36 36 36 35 35 34 33 33 32 32 32
18 19 20 21 22 22 23 24 24 25 25 26 26 27 27 28 28 29 29 29 30 30 30 30 30 31 32 33 34 35 35 36 36 37 37 37 37 36 36 35 34 33 32
17 17 18 19 20 20 21 21 21 22 22 23 23 24 24 24 24 24 24 25 25 24 25 26 26 26 27 29 30 31 33 34 35 36 36 37 38 38 38 38 37 36 35
15 16 17 17 18 18 19 19 20 21 21 22 22 23 23 23 23 25 25 25 25 25 25 25 24 24 25 26 26 27 28 30 31 33 34 35 36 37 38 39 39 39 38
12 13 13 14 15 16 17 18 19 20 21 22 23 23 24 24 25 26 27 27 28 28 28 27 27 27 27 26 26 26 26 26 26 27 28 29 30 32 33 35 36 38 39
9 10 11 12 13 14 15 16 17 19 20 21 23 24 25 26 27 27 28 28 28 29 30 30 30 30 29 29 29 29 29 28 28 27 27 26 26 27 28 30 32 34 36
7 8 9 10 11 13 14 16 17 19 20 22 23 25 26 27 27 28 29 29 30 31 32 33 33 33 33 33 33 33 33 33 32 31 30 29 28 27 27 27 27 28 29
Wind_Direction
259 260 261 262 262 262 262 260 259 260 263 265 267 270 271 272 272 272 271 271 271 272 272 271 271 271 272 271 271 274 279 285 290 293 295 297 297 297 298 300 302 303 303
261 262 263 264 264 264 263 261 260 261 263 264 267 269 271 273 275 274 273 271 270 268 268 268 267 268 268 267 268 271 275 280 285 289 292 294 293 292 294 296 299 300 301
260 262 263 263 263 262 261 260 260 261 263 264 266 268 271 272 274 275 276 274 272 270 269 267 266 264 263 264 265 268 272 276 280 284 288 290 292 292 292 292 295 297 298
258 259 260 260 259 258 258 259 260 261 262 263 265 266 268 272 274 276 278 278 277 274 271 269 266 264 263 262 264 266 269 273 276 280 283 285 287 290 291 291 292 293 295
255 256 256 256 256 256 256 257 258 260 261 262 264 266 268 271 274 277 278 279 280 276 271 269 263 262 263 263 264 265 266 270 275 278 280 282 285 286 288 290 291 290 291
254 254 254 255 256 256 257 257 258 260 261 263 265 267 269 272 274 277 278 280 281 277 272 266 261 260 262 264 264 263 264 269 274 277 279 280 282 283 284 286 287 288 288
254 254 254 255 256 257 258 259 260 262 263 265 268 269 271 273 275 276 278 278 280 276 272 266 259 258 261 263 261 263 264 269 273 276 278 279 280 281 281 282 283 283 284
255 255 255 256 256 256 258 259 261 263 265 267 269 271 272 273 274 276 277 277 277 275 270 264 258 255 257 258 259 260 264 269 273 275 277 278 278 278 278 279 279 279 279
256 255 255 255 256 256 257 258 260 262 264 266 269 272 273 273 272 273 273 273 273 271 265 257 254 253 254 255 257 261 266 269 272 273 275 276 276 276 276 276 275 275 274
254 254 254 254 254 255 256 257 260 262 264 267 271 273 273 271 270 271 270 268 266 264 261 257 253 253 254 257 261 264 266 268 271 272 273 275 276 276 274 274 273 271 270
251 251 251 251 252 252 254 257 259 263 266 268 270 270 269 267 265 266 265 263 260 256 254 253 252 254 257 261 263 264 267 269 271 272 273 275 275 275 274 273 271 268 266
250 250 250 251 252 253 256 258 261 263 264 265 266 267 265 261 257 258 259 260 259 259 259 258 257 258 261 262 264 265 267 268 269 271 272 273 274 274 274 272 269 266 263
250 250 251 252 253 254 256 258 260 261 261 263 264 263 261 259 255 256 258 261 262 264 264 265 264 264 264 265 265 266 267 268 268 269 270 270 272 273 272 269 266 263 260
250 250 251 252 252 254 256 257 259 260 262 264 263 263 261 259 258 258 261 263 264 266 266 265 266 266 267 267 267 267 267 267 268 268 268 268 271 270 269 266 263 260 258
251 252 252 253 253 255 257 259 260 261 263 265 266 265 263 262 261 261 262 264 266 268 269 269 269 269 269 269 269 268 268 267 267 267 266 267 269 268 266 263 260 259 257
252 254 253 254 255 256 258 260 262 263 264 265 267 267 266 265 265 263 263 265 265 266 267 268 269 269 269 269 269 268 267 266 266 266 266 266 267 265 262 259 257 256 255
253 254 254 255 256 258 259 260 263 264 264 265 265 266 265 265 265 265 265 265 265 266 266 266 267 268 269 270 269 269 267 266 265 265 265 265 265 262 259 256 254 253 252
257 256 257 257 258 259 261 263 264 265 265 266 266 266 266 267 267 267 267 267 268 268 267 267 268 268 269 268 268 268 265 264 263 262 262 262 261 260 258 256 253 252 250
258 260 261 262 263 264 265 266 266 267 267 268 268 269 269 269 269 270 270 270 270 270 270 270 270 269 268 267 265 264 262 262 260 259 259 258 258 257 256 255 253 252 250
260 262 265 266 268 268 269 269 270 270 271 272 273 274 274 274 274 273 273 272 272 272 271 270 269 267 265 264 261 259 258 258 257 256 256 255 255 254 254 253 251 250 249
264 267 269 270 271 272 273 274 275 275 276 276 277 278 278 278 277 276 275 274 273 272 270 269 267 265 264 262 260 257 256 255 255 254 253 253 252 252 251 250 248 248 248
269 271 272 273 275 276 277 278 278 279 279 279 279 279 278 278 276 275 275 275 273 273 272 270 268 267 266 264 262 259 257 257 257 256 254 254 254 253 250 248 246 245 245
272 274 275 276 277 278 279 280 281 282 282 282 281 280 280 278 276 275 275 275 275 275 273 271 270 269 268 268 267 265 264 263 263 262 260 258 257 255 253 250 249 247 245
276 277 276 277 279 280 280 281 282 282 283 283 283 283 282 281 280 278 276 275 274 273 272 270 269 270 270 270 270 270 269 268 267 266 264 263 261 258 254 251 249 248 246
283 282 281 282 284 284 284 284 285 286 285 285 285 285 285 284 282 280 278 277 274 272 271 270 268 268 268 266 268 270 269 268 267 267 266 265 264 263 260 256 254 252 251
292 290 288 288 287 286 287 288 288 288 288 288 288 288 287 286 285 283 281 278 275 272 270 269 268 268 266 264 265 267 267 266 265 265 264 264 264 265 265 264 262 259 256